Theta_e
329 327 329 337 340 344 346 353 354 345 345 355 351 354 355 355 356 357 360 356 355 352 349 352 353 352 346 348 349 348 347 349
329 325 327 329 342 346 351 353 355 346 347 347 351 353 355 355 355 357 358 355 355 353 347 350 350 348 351 354 353 353 349 348
326 326 329 332 341 350 352 355 351 357 356 351 355 352 353 357 356 357 357 355 355 353 350 351 358 356 356 353 356 352 347 340
327 325 327 336 341 352 351 353 358 357 356 356 355 356 357 355 357 358 357 356 357 354 352 352 354 355 358 357 354 353 349 343
342 347 348 349 349 354 355 349 353 354 355 354 353 354 356 355 357 361 359 358 359 359 353 352 354 356 358 355 353 351 346 339
335 335 335 338 348 355 354 352 353 355 354 356 353 356 360 359 359 360 358 357 358 357 350 350 352 353 352 350 348 345 341 335
331 332 330 330 332 341 341 339 340 347 354 356 362 361 360 359 361 356 358 358 356 356 351 352 354 348 348 347 345 344 339 335
325 326 325 328 331 335 331 335 336 344 345 350 356 352 352 353 353 353 355 355 354 354 351 353 351 346 344 344 345 342 340 336
323 323 323 323 323 324 326 327 330 329 336 340 344 343 349 354 350 352 351 351 351 352 349 350 349 344 345 345 340 338 334 334
320 320 319 317 319 320 321 324 325 326 329 334 338 345 347 345 345 350 346 346 347 346 347 345 350 343 345 340 342 332 331 335
316 316 317 315 317 318 320 321 324 324 328 326 330 335 336 333 334 337 337 340 341 344 344 344 344 344 338 344 339 338 329 335
315 316 315 313 313 316 319 321 322 321 325 324 326 321 321 323 325 328 329 334 337 338 340 340 340 339 342 340 338 340 338 330
312 313 313 316 317 316 317 320 319 320 321 321 318 318 319 319 320 326 329 333 333 328 334 333 333 335 339 338 338 338 334 333
313 314 315 315 316 316 316 316 317 317 317 317 317 315 316 316 317 316 317 319 320 326 324 327 329 327 327 329 333 334 332 333
312 312 312 313 313 314 314 315 315 316 316 316 316 316 315 315 314 313 313 313 314 319 323 321 319 324 323 325 326 328 330 328
310 311 312 311 312 313 314 313 313 314 314 313 314 314 311 311 312 310 309 310 312 315 315 315 317 318 319 322 324 327 326 329
310 311 311 310 312 312 312 312 312 313 312 312 311 310 309 307 306 307 306 307 307 308 309 310 312 314 317 320 316 324 325 323
310 310 311 312 312 312 312 311 310 310 309 308 307 306 305 305 306 305 305 305 306 306 307 309 311 312 314 315 316 321 321 323
309 310 311 311 311 310 310 309 308 307 307 306 304 304 305 305 304 305 305 307 308 308 308 309 311 312 314 312 315 317 317 319
309 309 309 309 308 308 307 307 306 305 304 304 304 305 305 305 305 306 307 307 308 309 309 310 310 310 313 314 313 314 315 314
Wind_Speed
21 28 31 27 10 8 7 6 9 9 6 3 6 6 6 5 4 5 5 3 6 5 6 8 7 14 9 14 12 10 11 6
12 22 16 32 10 7 9 6 5 4 3 3 10 3 4 3 6 4 3 4 4 3 5 8 3 5 4 5 2 3 8 12
20 20 13 16 28 5 10 8 3 4 4 6 6 3 2 3 3 4 3 4 3 4 5 6 4 4 3 5 5 5 6 5
24 23 20 16 11 8 5 8 7 7 6 5 2 2 2 5 2 1 3 3 2 4 4 6 5 6 4 7 5 4 2 2
17 16 9 2 6 10 7 1 3 3 4 1 4 1 1 2 3 3 4 3 3 5 7 4 5 4 4 6 3 3 5 6
17 15 14 15 15 14 13 13 9 4 4 4 7 2 1 2 1 3 3 5 6 5 6 6 5 5 6 6 4 5 4 4
18 18 16 15 16 15 17 13 16 15 18 15 2 8 4 5 3 3 6 6 5 6 5 6 7 7 6 5 4 6 6 7
16 18 18 16 17 16 19 14 14 12 5 3 7 7 5 3 3 7 7 6 6 5 6 4 4 7 7 5 6 7 8 8
15 17 18 16 21 17 16 17 17 13 8 9 8 9 5 5 6 8 9 11 10 9 7 6 3 7 6 7 7 9 8 7
15 17 17 16 18 18 19 18 14 13 9 8 7 7 5 8 9 7 13 10 9 7 7 7 7 6 7 7 7 9 8 8
13 14 17 15 17 15 13 15 14 14 14 10 9 7 7 8 9 8 11 10 12 12 10 8 8 8 9 7 8 10 10 10
13 13 14 14 13 13 15 15 13 11 13 10 10 9 9 9 9 9 10 12 11 10 8 7 8 8 11 10 9 8 10 12
10 12 12 13 13 12 13 13 13 14 13 14 11 11 10 11 10 12 12 10 9 14 10 10 12 11 11 12 13 11 9 11
10 9 9 12 11 12 12 12 12 14 12 14 13 14 14 12 12 12 10 11 11 12 13 10 10 9 12 12 14 13 10 10
8 10 11 10 12 12 11 12 12 12 13 12 13 12 13 12 12 11 14 11 11 12 14 13 12 13 13 10 13 11 11 10
7 6 8 10 11 11 11 12 12 13 13 12 11 13 10 11 13 14 12 12 13 18 17 18 18 17 14 13 9 9 10 9
7 7 9 9 10 12 14 15 14 14 15 14 15 14 15 14 14 13 11 14 13 16 17 17 17 17 17 14 12 12 11 6
6 7 9 9 11 12 14 14 15 15 15 13 13 14 13 11 10 10 11 11 12 13 14 13 16 15 14 13 12 10 12 9
8 8 9 11 13 13 13 14 15 15 15 15 13 13 13 11 11 11 10 11 14 13 10 12 10 15 14 10 11 13 13 10
9 9 10 12 13 13 13 13 14 14 13 13 12 11 11 11 11 12 11 10 10 10 10 12 14 13 14 11 10 9 9 6
Wind_Direction
48 35 11 325 117 101 76 123 64 62 15 165 185 169 177 175 210 218 208 310 207 208 215 204 205 206 231 211 219 230 249 358
96 65 27 316 340 124 99 123 76 77 328 67 275 187 152 213 163 178 248 228 193 240 311 329 198 193 290 30 351 11 41 20
113 127 148 262 283 92 112 105 174 187 193 183 302 60 166 25 197 165 296 313 335 310 324 312 325 297 276 264 347 6 34 21
131 139 171 207 268 59 107 162 158 183 200 245 208 153 61 218 306 288 210 269 287 293 273 256 296 337 298 297 304 269 187 206
56 47 57 207 64 85 106 52 142 204 172 228 283 221 229 253 207 193 272 306 289 281 278 321 271 259 304 264 264 242 226 210
74 57 35 28 23 78 73 31 27 268 243 158 213 114 323 340 292 279 194 223 238 288 286 292 332 311 266 256 249 239 240 232
52 66 54 47 39 48 41 41 47 342 23 320 130 60 19 34 324 295 19 334 298 305 310 323 337 298 302 301 236 250 236 232
51 55 55 47 51 49 54 40 38 19 30 296 356 55 35 61 360 16 353 320 312 316 302 289 298 275 267 245 262 226 250 235
58 58 57 46 49 34 47 42 28 26 357 24 13 357 353 34 21 23 360 356 351 330 312 318 274 279 292 302 266 256 260 254
52 54 52 46 48 37 29 40 28 34 5 337 23 323 353 29 3 2 24 351 339 332 342 317 301 287 283 265 263 276 251 254
65 59 53 41 51 39 36 32 29 30 1 17 1 342 360 16 349 348 358 335 349 345 337 324 310 304 281 257 244 258 274 286
42 57 62 61 47 45 32 37 30 25 20 22 3 355 352 344 333 342 331 328 321 315 305 315 320 306 304 297 276 268 275 277
64 49 33 45 41 39 43 25 24 17 16 14 2 357 341 331 335 333 313 294 341 320 319 17 356 337 317 303 306 310 297 293
44 34 38 34 35 30 38 24 17 14 8 7 358 348 340 330 332 320 318 336 318 318 335 346 330 331 324 327 317 306 298 296
29 27 18 27 25 26 16 20 8 5 1 355 345 338 322 323 324 325 333 319 318 316 329 324 317 311 308 315 319 313 305 290
17 9 17 16 18 18 13 8 358 358 355 349 348 346 343 327 346 344 327 317 328 337 327 331 319 310 303 304 299 304 303 294
20 9 26 13 10 16 11 4 355 355 356 354 348 348 342 345 338 325 330 324 322 310 319 314 311 305 302 296 287 297 295 288
31 13 22 10 13 8 9 359 356 356 354 350 347 343 338 329 324 325 322 314 311 309 302 302 302 299 301 301 290 292 289 288
2 9 21 15 10 4 6 359 350 357 353 349 347 341 335 330 330 325 324 322 315 306 314 300 303 332 302 296 294 289 282 281
346 5 23 13 5 3 358 356 358 357 352 342 340 333 338 334 332 327 327 322 305 311 320 328 327 351 339 329 322 330 352 5